KG0HG Weather Reports


Display with metric or nautical units.
time (UTC)temp
F
wind
direction
speed
MPH
gust
MPH
rain 1hr
in
rain 24hr
in
rain mn
in
humidity
%
barometer
mb
20260510043537 67 61 0.0 2.0 0.00 0.00 0.00 49 1013.4
20260510043033 67 54 0.0 3.0 0.00 0.00 0.00 50 1013.3
20260510042528 67 69 0.0 0.0 0.00 0.00 0.00 51 1013.4
20260510042028 68 69 0.0 0.0 0.00 0.00 0.00 50 1013.4
20260510041526 68 65 0.0 0.0 0.00 0.00 0.00 49 1013.5
20260510041023 68 56 1.0 1.0 0.00 0.00 0.00 49 1013.3
20260510040519 68 56 0.0 0.0 0.00 0.00 0.00 49 1013.4
20260510040015 68 29 1.0 2.0 0.00 0.00 0.00 49 1013.1
20260510035512 68 116 1.0 2.0 0.00 0.00 0.00 54 1013.1
20260510035011 69 50 1.0 2.0 0.00 0.00 0.00 52 1013.4
20260510034510 68 33 0.0 2.0 0.00 0.00 0.00 53 1013.6
20260510034006 67 262 0.0 3.0 0.00 0.00 0.00 58 1013.7
20260510033502 66 63 1.0 1.0 0.00 0.00 0.00 62 1013.5
20260510033000 67 62 0.0 0.0 0.00 0.00 0.00 60 1013.2
20260510032456 67 47 0.0 0.0 0.00 0.00 0.00 58 1013.1
20260510031951 67 47 0.0 0.0 0.00 0.00 0.00 57 1012.9
20260510031447 68 47 0.0 0.0 0.00 0.00 0.00 57 1012.6
20260510030943 68 47 0.0 0.0 0.00 0.00 0.00 57 1012.2
20260510030438 68 47 0.0 0.0 0.00 0.00 0.00 55 1012.0
20260510025936 68 47 0.0 0.0 0.00 0.00 0.00 55 1012.4
20260510025433 68 47 0.0 0.0 0.00 0.00 0.00 54 1012.0
20260510024930 69 47 0.0 0.0 0.00 0.00 0.00 54 1011.7
20260510024427 69 47 0.0 0.0 0.00 0.00 0.00 53 1011.9
20260510023923 69 47 0.0 0.0 0.00 0.00 0.00 53 1011.7
20260510023419 69 47 0.0 0.0 0.00 0.00 0.00 52 1011.4
20260510022917 70 47 0.0 0.0 0.00 0.00 0.00 50 1011.1
20260510022415 70 47 0.0 1.0 0.00 0.00 0.00 51 1011.0
20260510021914 71 47 0.0 0.0 0.00 0.00 0.00 49 1011.1
20260510021413 71 47 0.0 0.0 0.00 0.00 0.00 49 1011.0
20260510020909 71 47 0.0 0.0 0.00 0.00 0.00 48 1010.9
20260510020404 71 47 0.0 0.0 0.00 0.00 0.00 48 1010.7
20260510015900 71 43 0.0 0.0 0.00 0.00 0.00 48 1010.7
20260510015356 72 43 0.0 0.0 0.00 0.00 0.00 47 1010.8
20260510014851 72 43 0.0 0.0 0.00 0.00 0.00 46 1010.7
20260510014349 73 39 0.0 1.0 0.00 0.00 0.00 46 1010.8
20260510013845 73 65 0.0 1.0 0.00 0.00 0.00 46 1010.6
20260510013341 73 294 2.0 3.0 0.00 0.00 0.00 44 1010.2
20260510012836 73 52 1.0 2.0 0.00 0.00 0.00 45 1010.2
20260510012335 73 342 2.0 3.0 0.00 0.00 0.00 44 1010.0
20260510011831 73 10 4.0 9.0 0.00 0.00 0.00 44 1010.0
20260510011326 73 58 3.0 6.0 0.00 0.00 0.00 44 1009.9
20260510010823 73 35 1.0 3.0 0.00 0.00 0.00 44 1010.1
20260510010320 74 109 0.0 0.0 0.00 0.00 0.00 45 1010.1
20260510005817 74 152 0.0 0.0 0.00 0.00 0.00 44 1009.9
20260510005313 75 61 0.0 1.0 0.00 0.00 0.00 44 1009.7
20260510004811 75 60 0.0 1.0 0.00 0.00 0.00 43 1009.6
20260510004308 75 51 2.0 5.0 0.00 0.00 0.00 42 1009.6
20260510003806 75 60 0.0 1.0 0.00 0.00 0.00 42 1009.5
20260510003303 75 57 0.0 5.0 0.00 0.00 0.00 42 1009.4
20260510002801 76 57 1.0 2.0 0.00 0.00 0.00 41 1009.2
20260510002259 76 28 2.0 7.0 0.00 0.00 0.00 40 1009.3
20260510001755 76 41 0.0 3.0 0.00 0.00 0.00 41 1009.3
20260510001253 76 91 1.0 1.0 0.00 0.00 0.00 42 1009.3
20260510000749 76 284 2.0 8.0 0.00 0.00 0.00 40 1009.1
20260510000248 77 12 2.0 5.0 0.00 0.00 0.00 40 1009.0
20260509235744 78 51 1.0 2.0 0.00 0.00 0.00 39 1009.0
20260509235240 78 292 3.0 6.0 0.00 0.00 0.00 37 1008.7
20260509234735 78 344 4.0 6.0 0.00 0.00 0.00 37 1008.9
20260509234233 78 334 4.0 5.0 0.00 0.00 0.00 37 1008.8
20260509233731 78 85 1.0 6.0 0.00 0.00 0.00 38 1008.8
20260509233228 77 318 3.0 5.0 0.00 0.00 0.00 38 1008.6
20260509232724 78 63 0.0 2.0 0.00 0.00 0.00 38 1008.9
20260509232222 78 34 3.0 6.0 0.00 0.00 0.00 38 1008.7
20260509231718 78 359 2.0 10.0 0.00 0.00 0.00 37 1008.8
20260509231215 79 33 5.0 8.0 0.00 0.00 0.00 36 1008.3
20260509230713 80 355 4.0 13.0 0.00 0.00 0.00 33 1008.4
20260509230209 81 293 7.0 9.0 0.00 0.00 0.00 30 1008.6
20260509225705 81 304 4.0 8.0 0.00 0.00 0.00 30 1008.3
20260509225200 81 207 5.0 9.0 0.00 0.00 0.00 30 1008.1
20260509224651 81 254 4.0 8.0 0.00 0.00 0.00 28 1008.0
20260509224148 81 128 8.0 11.0 0.00 0.00 0.00 30 1007.8
20260509223645 82 40 2.0 3.0 0.00 0.00 0.00 30 1008.2
20260509223142 82 37 1.0 2.0 0.00 0.00 0.00 29 1007.5
20260509222639 83 316 3.0 3.0 0.00 0.00 0.00 29 1007.5
20260509222134 83 211 6.0 13.0 0.00 0.00 0.00 27 1007.5
20260509221630 83 156 2.0 3.0 0.00 0.00 0.00 29 1007.7
20260509221126 83 7 5.0 6.0 0.00 0.00 0.00 28 1007.5
20260509220622 84 293 7.0 11.0 0.00 0.00 0.00 28 1007.4
20260509220119 83 320 2.0 8.0 0.00 0.00 0.00 29 1007.2
20260509215615 84 181 5.0 7.0 0.00 0.00 0.00 28 1007.3
20260509215112 85 146 2.0 3.0 0.00 0.00 0.00 28 1007.4
20260509214608 85 300 4.0 8.0 0.00 0.00 0.00 25 1007.4
20260509214105 85 358 3.0 14.0 0.00 0.00 0.00 27 1007.4
20260509213601 85 40 2.0 5.0 0.00 0.00 0.00 27 1007.3
20260509213058 84 1 2.0 8.0 0.00 0.00 0.00 28 1007.4
20260509212555 85 359 3.0 7.0 0.00 0.00 0.00 31 1007.5
20260509212052 86 155 3.0 6.0 0.00 0.00 0.00 31 1007.3
20260509211548 84 30 2.0 5.0 0.00 0.00 0.00 31 1007.3
20260509211045 84 223 3.0 5.0 0.00 0.00 0.00 32 1007.4
20260509210542 84 290 3.0 7.0 0.00 0.00 0.00 31 1007.7
20260509210038 84 191 3.0 8.0 0.00 0.00 0.00 33 1007.4
20260509205532 84 153 2.0 6.0 0.00 0.00 0.00 32 1007.3
20260509205028 84 139 1.0 3.0 0.00 0.00 0.00 33 1007.5
20260509204524 84 171 3.0 7.0 0.00 0.00 0.00 33 1007.7
20260509204021 84 29 1.0 7.0 0.00 0.00 0.00 33 1007.5
20260509203516 83 163 2.0 3.0 0.00 0.00 0.00 31 1007.9
20260509203015 84 143 3.0 7.0 0.00 0.00 0.00 32 1008.1
20260509202509 83 172 4.0 5.0 0.00 0.00 0.00 33 1007.9
20260509202005 83 126 2.0 5.0 0.00 0.00 0.00 33 1008.1
20260509201500 82 150 3.0 9.0 0.00 0.00 0.00 31 1008.0
20260509200958 83 288 3.0 10.0 0.00 0.00 0.00 31 1008.0
20260509200452 83 286 7.0 11.0 0.00 0.00 0.00 32 1008.2
20260509195949 83 335 5.0 6.0 0.00 0.00 0.00 33 1008.2
20260509195445 83 172 4.0 6.0 0.00 0.00 0.00 33 1008.2
20260509194944 83 144 2.0 6.0 0.00 0.00 0.00 34 1008.2
20260509194440 83 178 3.0 8.0 0.00 0.00 0.00 33 1008.4
20260509193937 83 332 2.0 14.0 0.00 0.00 0.00 33 1008.5
20260509193437 82 316 7.0 9.0 0.00 0.00 0.00 33 1008.4
20260509192933 81 264 2.0 6.0 0.00 0.00 0.00 32 1008.4
20260509192430 82 331 2.0 5.0 0.00 0.00 0.00 33 1008.5
20260509191925 82 287 4.0 14.0 0.00 0.00 0.00 33 1008.7
20260509191420 81 359 3.0 8.0 0.00 0.00 0.00 36 1008.6
20260509190917 81 26 2.0 16.0 0.00 0.00 0.00 35 1008.4
20260509190414 81 125 3.0 7.0 0.00 0.00 0.00 36 1008.7
20260509185912 81 194 2.0 9.0 0.00 0.00 0.00 34 1008.7
20260509185409 80 294 5.0 9.0 0.00 0.00 0.00 36 1008.7
20260509184905 80 162 2.0 3.0 0.00 0.00 0.00 36 1008.9
20260509184402 80 356 3.0 8.0 0.00 0.00 0.00 36 1008.9
20260509183900 80 29 2.0 13.0 0.00 0.00 0.00 36 1008.9
20260509183354 80 345 3.0 6.0 0.00 0.00 0.00 37 1008.9
20260509182850 79 198 3.0 8.0 0.00 0.00 0.00 37 1008.9
20260509182347 79 166 3.0 8.0 0.00 0.00 0.00 39 1008.9
20260509181844 78 355 2.0 5.0 0.00 0.00 0.00 37 1009.1
20260509181342 78 202 2.0 5.0 0.00 0.00 0.00 39 1009.2
20260509180839 79 311 2.0 7.0 0.00 0.00 0.00 39 1009.4
20260509180335 78 315 4.0 8.0 0.00 0.00 0.00 38 1009.2
20260509175832 78 188 2.0 7.0 0.00 0.00 0.00 40 1009.2
20260509175328 77 286 3.0 5.0 0.00 0.00 0.00 39 1009.3
20260509174824 77 156 4.0 6.0 0.00 0.00 0.00 41 1009.4
20260509174320 78 219 3.0 5.0 0.00 0.00 0.00 43 1009.5
20260509173816 77 297 5.0 6.0 0.00 0.00 0.00 41 1009.5
20260509173312 78 158 2.0 7.0 0.00 0.00 0.00 40 1009.4
20260509172808 77 148 1.0 8.0 0.00 0.00 0.00 43 1009.7
20260509172306 77 153 2.0 3.0 0.00 0.00 0.00 42 1009.5
20260509171801 77 158 2.0 3.0 0.00 0.00 0.00 42 1009.9
20260509171256 77 30 1.0 8.0 0.00 0.00 0.00 41 1009.5
20260509170753 77 148 2.0 9.0 0.00 0.00 0.00 41 1009.7
20260509170249 77 7 1.0 6.0 0.00 0.00 0.00 42 1009.9
20260509165748 76 318 3.0 5.0 0.00 0.00 0.00 43 1009.9
20260509165244 76 149 3.0 3.0 0.00 0.00 0.00 45 1009.9
20260509164739 75 152 1.0 6.0 0.00 0.00 0.00 43 1009.9
20260509164235 75 234 2.0 5.0 0.00 0.00 0.00 44 1009.9
20260509163733 74 152 3.0 7.0 0.00 0.00 0.00 45 1009.9
20260509163229 74 157 1.0 6.0 0.00 0.00 0.00 47 1010.0
20260509162727 74 216 4.0 7.0 0.00 0.00 0.00 47 1009.9
20260509162222 74 214 1.0 5.0 0.00 0.00 0.00 48 1010.0
20260509161718 73 47 1.0 2.0 0.00 0.00 0.00 47 1010.0
20260509161214 73 271 3.0 6.0 0.00 0.00 0.00 48 1009.8
20260509160709 72 170 3.0 5.0 0.00 0.00 0.00 47 1009.7
20260509160206 72 354 2.0 5.0 0.00 0.00 0.00 48 1009.6
20260509155701 72 138 1.0 5.0 0.00 0.00 0.00 49 1009.7
20260509155158 71 22 0.0 5.0 0.00 0.00 0.00 51 1009.8
20260509154654 71 326 5.0 7.0 0.00 0.00 0.00 51 1009.9
20260509154151 71 282 1.0 7.0 0.00 0.00 0.00 53 1009.8
20260509153648 70 302 6.0 7.0 0.00 0.00 0.00 53 1009.7
20260509153145 70 314 3.0 6.0 0.00 0.00 0.00 53 1009.9
20260509152640 70 282 4.0 7.0 0.00 0.00 0.00 52 1009.6
20260509152138 70 334 3.0 11.0 0.00 0.00 0.00 52 1009.8
20260509151634 69 249 1.0 7.0 0.00 0.00 0.00 55 1009.7
20260509151132 69 283 2.0 3.0 0.00 0.00 0.00 56 1009.6
20260509150630 69 317 4.0 7.0 0.00 0.00 0.00 54 1009.7
20260509150128 68 276 2.0 6.0 0.00 0.00 0.00 55 1009.7
20260509145624 68 307 3.0 6.0 0.00 0.00 0.00 57 1009.8
20260509145119 67 343 2.0 7.0 0.00 0.00 0.00 58 1009.8
20260509144615 67 180 2.0 3.0 0.00 0.00 0.00 61 1009.8
20260509144113 67 359 2.0 3.0 0.00 0.00 0.00 62 1009.7
20260509143610 66 161 0.0 7.0 0.00 0.00 0.00 61 1009.6
20260509143107 66 106 1.0 6.0 0.00 0.00 0.00 62 1009.9
20260509142602 65 118 2.0 2.0 0.00 0.00 0.00 68 1009.6
20260509142059 64 75 1.0 2.0 0.00 0.00 0.00 69 1009.6
20260509141555 64 63 1.0 2.0 0.00 0.00 0.00 73 1009.7
20260509141052 63 62 1.0 2.0 0.00 0.00 0.00 77 1009.6
20260509140549 61 74 0.0 1.0 0.00 0.00 0.00 83 1009.6
20260509140047 60 72 0.0 0.0 0.00 0.00 0.00 87 1009.7
20260509135544 59 95 3.0 3.0 0.00 0.00 0.00 92 1009.5
20260509135041 58 90 2.0 3.0 0.00 0.00 0.00 96 1009.4
20260509134538 57 86 0.0 0.0 0.00 0.00 0.00 97 1009.9
20260509134036 57 85 0.0 0.0 0.00 0.00 0.00 99 1009.9
20260509133532 57 85 0.0 0.0 0.00 0.00 0.00 99 1010.0
20260509133030 56 87 0.0 0.0 0.00 0.00 0.00 99 1009.7
20260509132528 56 87 0.0 1.0 0.00 0.00 0.00 99 1009.7
20260509132026 56 87 0.0 0.0 0.00 0.00 0.00 99 1009.5
20260509131522 55 82 1.0 2.0 0.00 0.00 0.00 99 1009.9
20260509131019 55 74 0.0 0.0 0.00 0.00 0.00 99 1009.6
20260509130514 55 74 0.0 0.0 0.00 0.00 0.00 99 1009.7
20260509130012 54 74 0.0 1.0 0.00 0.00 0.00 99 1009.6
20260509125508 54 74 0.0 0.0 0.00 0.00 0.00 99 1009.5
20260509125004 54 74 0.0 2.0 0.00 0.00 0.00 99 1009.4
20260509124501 54 74 1.0 1.0 0.00 0.00 0.00 99 1009.5
20260509123958 53 74 0.0 1.0 0.00 0.00 0.00 99 1009.4
20260509123456 53 74 0.0 0.0 0.00 0.00 0.00 99 1009.3
20260509122951 53 74 0.0 0.0 0.00 0.00 0.00 99 1009.2
20260509122449 53 74 0.0 0.0 0.00 0.00 0.00 99 1009.3
20260509121945 53 74 0.0 0.0 0.00 0.00 0.00 99 1009.5
20260509121442 52 74 0.0 0.0 0.00 0.00 0.00 99 1009.4
20260509120940 52 74 0.0 0.0 0.00 0.00 0.00 99 1009.2
20260509120438 52 74 0.0 0.0 0.00 0.00 0.00 99 1008.9
20260509115936 52 74 0.0 0.0 0.00 0.00 0.00 99 1009.1
20260509115433 51 74 0.0 0.0 0.00 0.00 0.00 99 1008.9
20260509114930 51 74 0.0 0.0 0.00 0.00 0.00 99 1008.8
20260509114429 52 74 0.0 0.0 0.00 0.00 0.00 99 1008.9
20260509113928 52 74 0.0 0.0 0.00 0.00 0.00 99 1008.8
20260509113425 52 74 0.0 0.0 0.00 0.00 0.00 99 1008.6
20260509112921 52 74 0.0 0.0 0.00 0.00 0.00 99 1008.4
20260509112419 52 74 0.0 0.0 0.00 0.00 0.00 99 1008.5
20260509111915 52 74 0.0 0.0 0.00 0.00 0.00 99 1008.3
20260509111412 52 74 0.0 0.0 0.00 0.00 0.00 99 1008.4
20260509110910 52 74 0.0 0.0 0.00 0.00 0.00 99 1008.4
20260509110406 52 74 0.0 0.0 0.00 0.00 0.00 99 1008.2
20260509105904 52 74 0.0 0.0 0.00 0.00 0.00 99 1008.1
20260509105402 52 74 0.0 0.0 0.00 0.00 0.00 99 1008.3
20260509104859 52 74 0.0 0.0 0.00 0.00 0.00 99 1008.2
20260509104356 52 74 0.0 0.0 0.00 0.00 0.00 99 1008.4
20260509103853 52 74 0.0 0.0 0.00 0.00 0.00 99 1008.3
20260509103350 52 74 0.0 0.0 0.00 0.00 0.00 99 1008.4
20260509102849 52 74 0.0 0.0 0.00 0.00 0.00 99 1008.3
20260509102346 52 74 0.0 0.0 0.00 0.00 0.00 99 1008.4
20260509101841 52 74 0.0 0.0 0.00 0.00 0.00 99 1008.5
20260509101338 52 74 0.0 0.0 0.00 0.00 0.00 99 1008.4
20260509100836 52 74 0.0 0.0 0.00 0.00 0.00 99 1008.5
20260509100333 52 74 0.0 0.0 0.00 0.00 0.00 99 1008.5
20260509095829 53 74 0.0 0.0 0.00 0.00 0.00 99 1008.6
20260509095327 53 74 0.0 0.0 0.00 0.00 0.00 99 1008.6
20260509094824 53 74 0.0 0.0 0.00 0.00 0.00 99 1008.7
20260509094320 53 74 0.0 0.0 0.00 0.00 0.00 99 1008.7
20260509093818 53 74 0.0 1.0 0.00 0.00 0.00 99 1008.8
20260509093315 53 74 0.0 0.0 0.00 0.00 0.00 99 1008.6
20260509092814 53 74 0.0 1.0 0.00 0.00 0.00 99 1008.6
20260509092311 53 74 0.0 0.0 0.00 0.00 0.00 99 1008.4
20260509091809 53 74 0.0 0.0 0.00 0.00 0.00 99 1008.6
20260509091305 53 74 0.0 0.0 0.00 0.00 0.00 99 1008.4
20260509090803 53 74 0.0 0.0 0.00 0.00 0.00 99 1008.4
20260509090300 53 74 0.0 0.0 0.00 0.00 0.00 99 1008.4
20260509085757 53 74 0.0 0.0 0.00 0.00 0.00 99 1008.3
20260509085254 53 74 0.0 0.0 0.00 0.00 0.00 99 1008.2
20260509084751 53 74 0.0 0.0 0.00 0.00 0.00 99 1008.1
20260509084248 53 74 0.0 0.0 0.00 0.00 0.00 99 1008.3
20260509083746 52 74 0.0 0.0 0.00 0.00 0.00 99 1008.3
20260509083242 52 74 0.0 0.0 0.00 0.00 0.00 99 1008.2
20260509082739 52 74 0.0 0.0 0.00 0.00 0.00 99 1008.3
20260509082235 52 74 0.0 0.0 0.00 0.00 0.00 99 1008.3
20260509081732 52 74 0.0 0.0 0.00 0.00 0.00 99 1008.5
20260509081230 52 74 0.0 0.0 0.00 0.00 0.00 99 1008.5
20260509080728 52 74 0.0 0.0 0.00 0.00 0.00 99 1008.5
20260509080225 52 74 0.0 0.0 0.00 0.00 0.00 99 1008.4
20260509075723 53 74 0.0 0.0 0.00 0.00 0.00 99 1008.3
20260509075221 52 74 0.0 1.0 0.00 0.00 0.00 99 1008.4
20260509074717 52 74 0.0 1.0 0.00 0.00 0.00 99 1008.3
20260509074215 52 74 0.0 0.0 0.00 0.00 0.00 99 1008.5
20260509073711 52 74 0.0 0.0 0.00 0.00 0.00 99 1008.7
20260509073208 52 74 0.0 0.0 0.00 0.00 0.00 99 1008.6
20260509072704 53 74 0.0 0.0 0.00 0.00 0.00 99 1008.7
20260509072201 53 74 0.0 0.0 0.00 0.00 0.00 99 1008.6
20260509071658 53 74 0.0 0.0 0.00 0.00 0.00 99 1008.6
20260509071155 53 74 0.0 0.0 0.00 0.00 0.00 99 1008.6
20260509070652 53 74 0.0 0.0 0.00 0.00 0.00 99 1009.0
20260509070148 53 74 0.0 0.0 0.00 0.00 0.00 99 1008.8
20260509065644 53 74 0.0 0.0 0.00 0.00 0.00 99 1008.8
20260509065140 53 74 0.0 0.0 0.00 0.00 0.00 99 1008.7
20260509064637 52 74 0.0 0.0 0.00 0.00 0.00 99 1009.0
20260509064135 53 74 0.0 1.0 0.00 0.00 0.00 99 1008.9
20260509063632 52 87 1.0 1.0 0.00 0.00 0.00 99 1009.0
20260509063129 52 100 0.0 0.0 0.00 0.00 0.00 99 1009.0
20260509062626 52 100 0.0 0.0 0.00 0.00 0.00 99 1008.9
20260509062123 52 100 0.0 0.0 0.00 0.00 0.00 99 1009.1
20260509061620 52 100 0.0 0.0 0.00 0.00 0.00 99 1008.9
20260509061117 52 100 0.0 0.0 0.00 0.00 0.00 99 1009.1
20260509060615 52 107 0.0 0.0 0.00 0.00 0.00 99 1009.3
20260509060110 52 107 0.0 0.0 0.00 0.00 0.00 99 1009.0
20260509055606 52 107 0.0 0.0 0.00 0.00 0.00 99 1009.0
20260509055102 52 107 0.0 0.0 0.00 0.00 0.00 99 1009.1
20260509054559 52 107 0.0 0.0 0.00 0.00 0.00 99 1009.2
20260509054057 52 107 0.0 0.0 0.00 0.00 0.00 99 1009.2
20260509053555 53 107 0.0 1.0 0.00 0.00 0.00 99 1009.4
20260509053052 53 107 0.0 0.0 0.00 0.00 0.00 99 1009.4
20260509052550 52 107 0.0 0.0 0.00 0.00 0.00 99 1009.2
20260509052047 52 107 0.0 0.0 0.00 0.00 0.00 99 1009.2
20260509051545 52 107 0.0 0.0 0.00 0.00 0.00 98 1009.0
20260509051041 53 107 0.0 0.0 0.00 0.00 0.00 98 1009.2
20260509050539 52 108 0.0 0.0 0.00 0.00 0.00 98 1009.4
20260509050035 52 108 0.0 0.0 0.00 0.00 0.00 98 1009.1
20260509045532 52 108 0.0 0.0 0.00 0.00 0.00 98 1009.1
20260509045029 52 108 0.0 0.0 0.00 0.00 0.00 98 1009.2
20260509044526 53 108 0.0 0.0 0.00 0.00 0.00 98 1009.6
20260509044024 52 108 0.0 0.0 0.00 0.00 0.00 98 1009.5